Location: Krasnoyarskiy Pitomnik
(51.1333°N, 71.6167°E)
Time: 10:13:56
(UTC+00:00)

COSMOS 2455 - Pass Details

Date: 22 October 2021
Orbit: 898 x 911 km, 67.1° (Epoch: 07 December)

Event Time Altitude Azimuth Distance (km) Brightness Sun altitude
Exits shadow 23:46:50 34° 243° (WSW) 1,443 3.4 -20.0°
Maximum altitude 23:49:25 63° 312° (NW) 1,007 2.9 -19.6°
Drops below altitude 10° 23:55:25 10° 34° (NE) 2,605 5.8 -18.6°
Sets 23:57:59 0° 38° (NE) 3,551 6.6 -18.2°
